x

Diamond Shoals (41025) Wave Buoy

8:50 - Thu 24th Apr 2014 All times are EDT. -4 hours from GMT.

  • Sig Wave height 5.9ft
  • Swell Direction
  • Peak Period 7s
  • Average Period 6s
  • Wind
    20mph, 25mph gusts
  • Sea Temp 73°f
  • Air Temp 54°f
  • Sea Pressure 1018.5mb
  • Diamond Shoals
  • Diamond Shoals

More Historic Weather Station data

Upgrade to MSW Pro to gain access to the past 30 days of data for over 8000 Wavebouys and Weather Stations around the globe.

Join Pro

Comparision Forecast

View Surf forecast
   
jeu. 04/24 8:50 6ft 7s 6s 20 25 mph 1018.5mb 73f 54f
7:50 6.5ft 6s 6s 22 29 mph 1017.9mb 74f 55f
6:50 6ft 6s 6s 25 29 mph 1017.2mb 74f 55f
5:50 5.5ft 6s 5s 27 31 mph 1015.9mb 74f 55f
4:50 5ft 8s 5s 29 34 mph 1015.1mb 75f 57f
3:50 5ft 8s 6s 27 34 mph 1015mb 75f 59f
2:50 4.5ft 8s 6s 22 27 mph 1014.5mb 75f 60f
1:50 4.5ft 8s 6s 18 22 mph 1014.7mb 74f 61f
12:50 4.5ft 9s 6s 18 22 mph 1014.5mb 74f 61f
mer. 04/23 11:50 4ft 9s 6s 13 18 mph 1013.9mb 75f 62f
10:50 4.5ft 9s 6s 13 16 mph 1013.4mb 75f 61f
9:50 4.5ft 9s 7s 13 18 mph 1012.8mb 75f 61f
8:50 4.5ft 9s 6s 13 16 mph 1012mb 75f 62f
7:50 4.5ft 8s 6s 9 13 mph 1010.8mb 75f 62f
6:50 4.5ft 8s 6s 9 13 mph 1009.8mb 75f 62f
5:50 5ft 8s 6s 7 11 mph 1009.1mb 76f 62f
4:50 4.5ft 7s 6s 11 13 mph 1008.6mb 76f 61f
3:50 5ft 7s 6s 11 16 mph 1008.2mb 76f 61f
2:50 5.5ft 7s 6s 13 16 mph 1008.2mb 76f 61f
1:50 5ft 6s 6s 16 20 mph 1008.3mb 76f 60f
12:50 6.5ft 6s 6s 20 25 mph 1008.1mb 75f 60f
11:50 5.5ft 6s 5s 25 31 mph 1008.4mb 75f 59f
10:50 5.5ft 5s 5s 29 34 mph 1008mb 75f 60f
9:50 4.5ft 8s 5s 29 36 mph 1007mb 75f 61f
8:50 4ft 8s 5s 25 31 mph 1006.2mb 75f 62f
7:50 4.5ft 8s 5s 27 34 mph 1005.2mb 75f 66f
6:50 4.5ft 9s 5s 20 25 mph 1004.1mb 76f 68f
5:50 4.5ft 7s 5s 22 27 mph 1003.2mb 76f 69f
4:50  -   -   -  20 22 mph 1002.9mb 76f 69f
3:50  -   -   -  22 25 mph 1002.9mb 76f 70f
2:50  -   -   -  18 22 mph 1002.9mb 76f 70f
1:50 6ft 5s 5s 18 22 mph 1003.4mb 76f 69f
12:50 6.5ft 6s 5s 27 31 mph 1003.6mb 76f 71f
mar. 04/22 11:50 6ft 8s 5s 27 31 mph 1003.7mb 76f 72f
10:50 5.5ft 6s 5s 27 34 mph 1004.2mb 76f 72f
9:50 5ft 9s 5s 27 31 mph 1004.1mb 76f 73f
8:50 5ft 8s 5s 25 31 mph 1004.4mb 76f 73f
7:50 5ft 9s 5s 25 29 mph 1004.3mb 76f 73f
6:50 5ft 8s 5s 27 31 mph 1004.2mb 76f 73f
5:50 5ft 8s 5s 25 29 mph 1004.7mb 76f 72f
4:50 5ft 8s 5s 25 29 mph 1004.8mb 76f 73f
3:50 5ft 8s 5s 25 29 mph 1005.2mb 76f 72f
2:50 5ft 9s 6s 22 27 mph 1006.5mb 76f 70f
1:50 4.5ft 9s 6s 20 25 mph 1007.6mb 76f 70f
12:50 4.5ft 9s 6s 18 20 mph 1008.3mb 76f 69f
11:50 5ft 9s 7s 16 18 mph 1009.3mb 76f 67f
10:50 5.5ft 8s 8s 13 18 mph 1009.8mb 76f 67f
9:50  -   -   -  9 11 mph 1010.1mb 76f 65f
8:50 5ft 10s 8s 9 11 mph 1010.7mb 76f 64f
7:50 6ft 10s 8s 7 9 mph 1011mb 76f 60f
6:50 7ft 9s 8s 7 9 mph 1011.1mb 76f 56f
5:50 6ft 11s 8s 7 9 mph 1010.8mb 76f 60f
4:50 7ft 9s 8s 9 11 mph 1010.5mb 76f 59f
3:50 7ft 9s 7s 13 16 mph 1010.9mb 76f 57f
2:50 7ft 9s 8s 13 18 mph 1011.1mb 76f 56f
1:50 7ft 9s 8s 18 20 mph 1011.6mb 75f 55f
12:50  -   -   -  16 20 mph 1012.4mb 75f 55f
lun. 04/21 11:50 9ft 9s 8s 18 22 mph 1012.6mb 75f 56f
10:50 9ft 11s 8s 18 22 mph 1013mb 75f 56f
9:50 11ft 10s 8s 20 25 mph 1013.3mb 75f 55f
8:50 10ft 11s 8s 20 25 mph 1013.1mb 74f 54f
7:50 8.5ft 10s 7s 22 27 mph 1012.9mb 74f 54f
6:50 10.5ft 10s 8s 25 29 mph 1012.6mb 74f 54f
5:50 8.5ft 10s 7s 25 31 mph 1013.1mb 74f 53f
4:50 9ft 11s 7s 29 36 mph 1012.8mb 73f 53f
3:50 8ft 10s 6s 31 36 mph 1013.2mb 73f 53f
2:50 10ft 11s 7s 31 38 mph 1013.8mb 73f 54f
1:50 11ft 10s 7s 34 40 mph 1013.7mb 73f 55f
12:50 11ft 10s 7s 34 38 mph 1014.1mb 73f 55f
11:50 11.5ft 10s 7s 31 38 mph 1014.3mb 74f 55f
10:50 11.5ft 10s 7s 34 40 mph 1014.3mb 74f 56f
9:50 11ft 11s 7s 34 40 mph 1014.1mb 74f 55f
7:50 12ft 11s 7s 31 40 mph 1013.8mb 74f 58f
6:50 12.5ft 11s 7s 34 38 mph 1013.3mb 75f 57f
5:50 13ft 11s 7s 31 38 mph 1012.9mb 75f 57f
4:50 12ft 11s 7s 34 40 mph 1012.7mb 75f 57f
3:50 14ft 11s 8s 38 45 mph 1012.5mb 75f 58f
2:50 17ft 11s 8s 38 49 mph 1012.3mb 75f 59f
1:50 16.5ft 11s 8s 38 47 mph 1012.9mb 75f 58f
12:50 16.5ft 12s 8s 38 47 mph 1013.6mb 75f 58f
dim. 04/20 11:50 17.5ft 12s 9s 36 45 mph 1014.2mb 75f 58f
10:50 15.5ft 11s 8s 36 43 mph 1014.8mb 76f 59f
9:50 18ft 11s 9s 36 43 mph 1014.8mb 76f 60f
8:50 16.5ft 12s 8s 36 45 mph 1014.9mb 76f 60f